COSMOS 2477 (745)

Last updated on Wed Apr 08 2026 00:04:20 GMT+0000 (Coordinated Universal Time)

1 37868U 11064B 26096.40634785 .00000011 00000+0 00000+0 0 9994 2 37868 65.2371 75.3717 0021870 243.9238 113.1674 2.13102916112223
UTC large
Height (km)
Speed (km/s)
/
Latitude / Longitude
Inclination (degrees)
Orbital Period (minutes)
Azimuth
Elevation
Range (km)
Doppler Factor

Next 0 passes for location: London (51.5072 / 0.1276)

Sorry there are no passes over London.
COSMOS 2477 (745)